Location: Bottenau
(48.5138°N, 8.0462°E)
Time: 20:41:53
(UTC+00:00)

Cosmos 1953 Rocket - Pass Details

Date: 18 April 2021
Orbit: 603 x 636 km, 82.5° (Epoch: 17 May)

Event Time Altitude Azimuth Distance (km) Brightness Sun altitude
Rises 18:55:30 0° 351° (N) 2,898 7.5 -5.8°
Reaches altitude 10° 18:57:45 10° 354° (N) 1,982 6.6 -6.1°
Maximum altitude 19:02:08 74° 79° (E) 639 3.5 -6.8°
Drops below altitude 10° 19:06:27 10° 165° (SSE) 1,951 5.7 -7.4°
Sets 19:08:38 0° 167° (SSE) 2,847 6.6 -7.7°
